OPS 4682 DEB, 18783

Orbit data source: Space-Track

OPS 4682 DEB, 18783 is space debris in LEO originally from a launch on Sat, 03 Apr 1965 UTC launched from the Air Force Western Test Range (AFWTR). Debris objects in space refer to the collection of defunct objects orbiting the Earth. Examples of debris include non-operational satellites, rocket bodies, and fragments generated from explosions, collisions, or faulty payload assembly.

Loading next visibility...
Identifier
18783, 1965-027AK
Orbit
LEO
Country
Flag of USUS
Related business
Manufacturer
Unknown
Mission
Spacecraft
Bus & Motor
Unknown
Mass
Unknown
Launch date (UTC)
1965-04-03 (61 years ago)
Launch vehicle
Unknown
Launch site
Air Force Western Test Range (AFWTR)
Object type
Payload
Rocket body
Debris
Shape & HBR
Unknown shape, 0.1 m
Radar Cross Section
Medium (>0.1 m² and <1 m²)

Expand to show TLE details & history
Last TLE update: 13 hours ago

TLE from 13 hours ago
0 OPS 4682 DEB
1 18783U 65027AK  26150.59414074  .00000081  00000-0  24222-3 0  9999
2 18783  90.2698  25.8974 0025684 253.0117 133.4365 13.00825387578194
Epoch: 2026-05-30T14:15Z
TLE epoch observation values (Epoch: 2026-05-30T14:15:33.759Z)
Latitude
26.69356°
Longitude
-76.23617°
Altitude
1,275.624 km
Speed
7.214 km/s
True Right ascension
01h 43m 02s
True Declination
26° 33' 54"
Sunlit
Object was in daylight at epoch
Visualization orbit readout
Latitude
Unknown
Longitude
Unknown
Altitude
Unknown
Speed
Unknown
Apparent Right ascension
Unknown
Apparent Declination
Unknown
Sunlit
N/A
Visualization observer readout
Local Sidereal Time
12:24:40
Azimuth
Unknown
Elevation
Unknown
Doppler factor
Unknown
Orbital elements
Apogee altitude
1,275.588 km
Perigee altitude
1,236.373 km
Semi-major axis
7,634.117 km
Eccentricity
0.00257
Inclination
90.2698°
RAAN
25.8974°
Arg. of periapsis
253.0117°
True anomaly
133.64974°
Mean anomaly
133.4365°
Eccentric anomaly
133.54317°
Mean motion
3.25391 °/min
Orbital period
110.64 mins
BSTAR
0.00024222
Loading maneuver chart data...
Computing Atmospheric mass density...
Loading historical data...
Loading historical data...
Loading historical data...
Loading historical data...
Loading historical data...
Loading historical data...
Loading historical data...

Documentation

Showing up to 5 results
|